Location: Daytona Beach
(29.2106°N, 81.0231°W)
Time: 16:57:37
(UTC-04:00)

RS-15 - Pass Details

Date: 02 October 2021
Orbit: 1884 x 2160 km, 64.8° (Epoch: 26 October)

Event Time Altitude Azimuth Distance (km) Brightness Sun altitude
Rises 01:56:07 0° 326° (NW) 5,666 10.7 -62.5°
Reaches altitude 10° 01:59:43 10° 321° (NW) 4,673 10.1 -62.2°
Enters shadow 02:00:30 12° 320° (NW) 4,465 9.9 -62.1°
